Weather History for New Orleans Lakefront, LA

Change the Weather History Date:

Sunday, November 18, 2012

  Actual Average Record
Temperature  
Mean Temperature 58 °F 62 °F  
Max Temperature 67 °F 71 °F 85 °F (1986)
Min Temperature 48 °F 53 °F 33 °F (1959)
Degree Days  
Heating Degree Days 7 5  
Month to date heating degree days 90 63  
Since 1 July heating degree days 117 88  
Cooling Degree Days 0 2  
Month to date cooling degree days 36 50  
Year to date cooling degree days 3374 2959  
Growing Degree Days 8 (Base 50)    
Moisture  
Dew Point 47 °F    
Average Humidity 60    
Maximum Humidity 83    
Minimum Humidity 37    
Precipitation  
Precipitation 0.00 in 0.15 in 3.78 in (2000)
Month to date precipitation 1.46 2.59  
Year to date precipitation 62.11 55.31  
Snow  
Snow 0.00 in - - ()
Month to date snowfall 0.0  
Since 1 July snowfall 0.0  
Since 1 September snowfall 0.0  
Snow Depth 0.00 in    
Sea Level Pressure  
Sea Level Pressure 30.27 in    
Wind  
Wind Speed 5 mph (NNE)    
Max Wind Speed 15 mph    
Max Gust Speed 18 mph    
Visibility 10 miles    
Events      
T = Trace of Precipitation, MM = Missing Value Source: NWS Daily Summary

Daily Weather History Graph

Daily Weather History Graph

Search for Another Location

Airport:

Trip Planner

Search our weather history database for the weather conditions in past years. The results will help you decide how hot, cold, wet, or windy it might be!

Date:

Astronomy

Nov. 18, 2012 Rise Set
Actual Time 6:28 AM CST 5:02 PM CST
Civil Twilight 6:02 AM CST 5:27 PM CST
Nautical Twilight 5:33 AM CST 5:56 PM CST
Astronomical Twilight 5:05 AM CST 6:25 PM CST
Moon 10:59 AM CST (11/18) 10:15 PM CST (11/18)
Length of Visible Light 11h 25m
Length of Day
10h 34m
Waxing Crescent, 30% of the Moon is Illuminated
Nov 18
Waxing Crescent
Nov 20
First Quarter
Nov 28
Full
Dec 6
Last Quarter
Dec 13
New

Hourly Weather History & Observations

Time (CST) Temp. Dew Point Humidity Pressure Visibility Wind Dir Wind Speed Gust Speed Precip Events Conditions
12:53 AM 55.9 °F 44.1 °F 64% 30.28 in 10.0 mi ENE 13.8 mph - N/A   Clear
1:53 AM 55.0 °F 44.1 °F 67% 30.28 in 10.0 mi NE 10.4 mph - N/A   Clear
2:53 AM 54.0 °F 45.0 °F 72% 30.27 in 10.0 mi NE 12.7 mph - N/A   Clear
3:53 AM 54.0 °F 44.1 °F 69% 30.27 in 10.0 mi NE 13.8 mph - N/A   Clear
4:53 AM 53.1 °F 44.1 °F 71% 30.27 in 10.0 mi NE 12.7 mph - N/A   Clear
5:53 AM 53.1 °F 44.1 °F 71% 30.28 in 10.0 mi NE 12.7 mph - N/A   Clear
6:53 AM 53.1 °F 44.1 °F 71% 30.29 in 10.0 mi NE 15.0 mph - N/A   Clear
7:53 AM 54.0 °F 43.0 °F 66% 30.29 in 10.0 mi NE 18.4 mph - N/A   Clear
8:53 AM 55.9 °F 42.1 °F 60% 30.30 in 10.0 mi ENE 15.0 mph - N/A   Clear
9:53 AM 57.9 °F 41.0 °F 53% 30.31 in 10.0 mi ENE 10.4 mph - N/A   Clear
10:53 AM 61.0 °F 43.0 °F 52% 30.30 in 10.0 mi NNE 8.1 mph - N/A   Clear
11:53 AM 63.0 °F 45.0 °F 52% 30.28 in 10.0 mi NNE 6.9 mph - N/A   Clear
12:53 PM 64.0 °F 44.1 °F 48% 30.25 in 10.0 mi North 5.8 mph - N/A   Clear
1:53 PM 64.0 °F 45.0 °F 50% 30.24 in 10.0 mi NW 5.8 mph - N/A   Clear
2:53 PM 64.0 °F 46.0 °F 52% 30.24 in 10.0 mi NW 5.8 mph - N/A   Clear
3:53 PM 62.1 °F 46.9 °F 58% 30.24 in 10.0 mi West 3.5 mph - N/A   Clear
4:53 PM 61.0 °F 48.9 °F 64% 30.25 in 10.0 mi Calm Calm - N/A   Clear
5:53 PM 60.1 °F 52.0 °F 75% 30.25 in 10.0 mi Calm Calm - N/A   Clear
6:53 PM 59.0 °F 52.0 °F 78% 30.26 in 10.0 mi North 3.5 mph - N/A   Clear
7:53 PM 57.9 °F 52.0 °F 81% 30.27 in 10.0 mi Calm Calm - N/A   Clear
8:53 PM 57.9 °F 53.1 °F 84% 30.28 in 10.0 mi Calm Calm - N/A   Clear
9:53 PM 57.9 °F 53.1 °F 84% 30.28 in 10.0 mi NNE 4.6 mph - N/A   Clear
10:53 PM 59.0 °F 52.0 °F 78% 30.27 in 10.0 mi NE 5.8 mph - N/A   Clear
11:53 PM 57.9 °F 48.0 °F 70% 30.27 in 10.0 mi ENE 11.5 mph - N/A   Clear